Location: Cambroso
(45.2833°N, 12.0850°E)
Time: 11:40:20
(UTC+00:00)

NOSS 3-1 (C) - Pass Details

Date: 21 January 2021
Orbit: 723 x 1485 km, 63.3° (Epoch: 03 March)

Event Time Altitude Azimuth Distance (km) Brightness Sun altitude
Rises 18:38:43 0° 321° (NW) 3,931 7.2 -27.0°
Reaches altitude 10° 18:41:13 10° 321° (NW) 3,071 6.5 -27.5°
Maximum altitude 18:48:47 87° 235° (SW) 1,320 4.0 -28.8°
Enters shadow 18:52:05 43° 147° (SSE) 1,844 4.6 -29.4°
